Espace membre
Imprimable
Wissant, 07-08/09/2019, FRA - Trail de la Côte d'Opale
Liste des rapports > 21km - Classements
Recherche: Page: [1]
34 Entrées
 
Les réclamations ne sont plus acceptées, les résultats sont considérés comme définitifs.
RangNrLicenceNomAgeIOCEquipeTempsTkmMoy.ScrLocalité
1.4037DESMIDT Christian63FRA1:40:224:47 12.5626
2.4586DESOBRY Stéphane62BELCORTO2:00:145:44 10.48207
3.5191GAKYERE Jean-Pierre63FRA2:02:385:51 10.28238
4.5193BOTTEIN Bruno60FRA2:04:415:57 10.11283
5.4625VERSTRAETE Gerard65FRA2:05:385:59 10.03299
6.4582LAMERAND Jacques60FRA2:07:436:05 9.87330
7.42951056476DELEBARRE Michel61FRAOMNISPORT AIROIS ATHLETIS2:08:316:08 9.81342
8.4619DELECOUR Eric60FRA2:10:146:13 9.68376
9.4068VELUT Xavier61FRA2:12:456:20 9.49413
10.4574DE ROCCO Franck62FRA2:13:376:22 9.43426
11.5275DEWEZ Alex63BEL2:14:086:24 9.39440
12.4436SEGARD Pascal62FRA2:16:036:29 9.26461
13.4736VANTYGHEM Alain64FRA2:20:076:41 8.99531
14.4031BOUTLEUX Francis60FRA2:20:336:42 8.96540
15.4109DUBOIS Eric-Henri64FRAFOULÉES ATHLÉTIQUES DE WA2:22:456:48 8.83587
16.5086VANPEENE Philippe69FRA2:23:586:52 8.75610
17.4615MARTIN Germain60BEL2:25:536:57 8.64643
18.4054DEMAY Jan François63FRA2:29:467:08 8.41730
19.4334GRANDCHAMPS Alexandre64BEL2:30:177:10 8.38743
20.5034POITRE Bernard64FRA2:33:267:19 8.21805
21.5263COPPIN Philippe61FRA2:34:207:21 8.16823
22.5345KISSI Noureddine62FRA2:34:507:23 8.14833
23.4708ROBERT Michel69FRABOUFFIOLS2:34:517:23 8.14834
24.5076PLASSON Michel66FRA2:36:147:27 8.07844
25.4515BOCQUET Bruno64FRAACC2:39:097:35 7.92899
26.46971469756ROUTTIER Patrick69FRAASC BALAN2:41:397:42 7.80948
27.4275LIEBAERT Denis62FRA2:41:507:43 7.79949
28.4727JOURDAIN Eric63FRA2:43:317:48 7.71969
29.5016CHARPENTIER Patrick61FRA2:46:347:56 7.561000
30.4668VANDAMME Marc61FRA2:46:517:57 7.551002
31.4672STAHL Philippe69FRA2:51:338:11 7.341052
32.5003WISNEWSKI Philippe61FRA2:56:058:24 7.161085
33.5099MALATERRE Gilles66FRA2:56:268:25 7.141088
34.4281POLLE Patrick60FRAJOGGING DES FRAISES VERLI2:57:488:28 7.091098
DNF: abandon; DSQ: disqualifié; Vitesse en km/h
Page: [1]